Content
SEND FEEDBACK

Daily
Averages
Monthly
Summary
Indonesia

HASANUDIN, INDONESIA


Home > Asia > Indonesia
Elevation: 46 feet     Latitude: 05 04S     Longitude: 119 33E

WEATHER
 
SELECT A DAY
Number of Records: 196,653;   Date Range: 9/17/97 - 9/22/14
 
SHARE

PRINT THIS DATA

[ ← Previous Day ]
WEATHER ALMANAC - JANUARY 31, 2013
[ Next Day → ]
[ °C ]   °F
Weather ElementAverageHighLow
Temperature80.1 °F88 °F (11:00 am)75.2 °F (5:00 am)
Dewpoint77.9 °F80.6 °F (5:00 pm)75.2 °F (5:00 am)
Humidity93.3 %100 % (12:30 am)59 % (11:00 am)
Barometer28.88 in29.93 in (8:00 am) (7:00 pm)
Wind Speed5.7 mph17.3 mph (2:48 pm)
Weather ElementAverage
Visibility4.9 mi
Wind DirectionSSE (152.3 °)

Weather ElementTotal
Precipitation---
Cooling Degree Days16.6 (Base 65)
Growing Degree Days31.6 (Base 50)
Averaged from 56 records on January 31, 2013
WEATHER CONDITIONS BREAKOUT
WIND DIRECTION BREAKOUT
WEATHER BY HOUR - JANUARY 31, 2013
[ °C ]   °F
Local TimeTemperatureDewpointHumidityBarometerVisibilityWind DirectionWind SpeedGust SpeedPrecipitationEventsConditions
12:30 AM78.8 °F78.8 °F100 %29.89 in4.3 miENE (60°)3.5 mphScattered Clouds
1:00 AM78.8 °F78.8 °F100 %29.89 in4.3 miVariable2.3 mphScattered Clouds
1:30 AM77.0 °F77.0 °F100 %29.86 in4.3 miENE (70°)3.5 mphScattered Clouds
2:00 AM77.0 °F77.0 °F100 %29.88 in4.0 miNE (50°)3.5 mphPartly Cloudy
2:00 AM77.0 °F77.0 °F100 %29.86 in4.3 miENE (60°)4.6 mphScattered Clouds
2:30 AM77.0 °F77.0 °F100 %29.86 in4.3 miEast (80°)4.6 mph
3:00 AM77.0 °F77.0 °F100 %29.86 in4.3 miEast (80°)3.5 mphScattered Clouds
4:00 AM77.0 °F77.0 °F100 %29.86 in4.3 miVariable2.3 mphScattered Clouds
4:30 AM77.0 °F77.0 °F100 %29.86 in5.0 miEast (100°)3.5 mphPartly Cloudy
5:00 AM76.0 °F76.0 °F100 %29.88 in5.0 miESE (110°)3.5 mphScattered Clouds
5:00 AM75.2 °F75.2 °F100 %29.89 in5.0 miSE (130°)1.2 mphPartly Cloudy
5:30 AM75.2 °F75.2 °F100 %29.89 in5.0 miSE (140°)3.5 mphPartly Cloudy
6:00 AM75.2 °F75.2 °F100 %29.89 in5.6 miEast (80°)2.3 mphPartly Cloudy
6:30 AM75.2 °F75.2 °F100 %29.89 in5.6 miENE (70°)2.3 mphPartly Cloudy
7:00 AM77.0 °F77.0 °F100 %29.89 in5.6 miVariable1.2 mphPartly Cloudy
7:30 AM78.8 °F77.0 °F94 %29.92 in6.2 miVariable2.3 mphPartly Cloudy
8:00 AM80.0 °F77.0 °F89 %29.93 in6.0 miESE (110°)2.3 mphScattered Clouds
8:00 AM80.6 °F77.0 °F89 %29.92 in6.2 miVariable2.3 mphPartly Cloudy
8:30 AM82.4 °F78.8 °F89 %29.92 in6.2 miVariable2.3 mphPartly Cloudy
9:00 AM84.2 °F77.0 °F79 %29.92 in6.2 miEast (80°)3.5 mphPartly Cloudy
9:30 AM84.2 °F78.8 °F84 %29.92 in6.2 miEast (80°)3.5 mphPartly Cloudy
10:00 AM86.0 °F78.8 °F79 %29.92 in6.2 miVariable2.3 mphPartly Cloudy
10:30 AM87.8 °F77.0 °F70 %29.92 in6.2 miVariable3.5 mphPartly Cloudy
11:00 AM88.0 °F76.0 °F59 %29.92 in6.0 miWNW (300°)5.8 mphScattered Clouds
11:00 AM87.8 °F75.2 °F66 %29.92 in6.2 miNW (320°)8.1 mphPartly Cloudy
11:30 AM87.8 °F75.2 °F66 %29.92 in6.2 miNW (320°)6.9 mphScattered Clouds
12:00 PM84.2 °F78.8 °F84 %29.89 in6.2 miWNW (300°)16.1 mphScattered Clouds
12:30 PM84.2 °F77.0 °F79 %29.89 in6.2 miWNW (300°)15.0 mphScattered Clouds
1:00 PM84.2 °F78.8 °F84 %29.86 in6.2 miWNW (300°)9.2 mphScattered Clouds
1:30 PM86.0 °F78.8 °F79 %29.89 in6.2 miNW (320°)10.4 mphScattered Clouds
2:00 PM85.0 °F78.0 °F75 %29.87 in6.0 miNW (310°)11.5 mphPartly Cloudy
2:00 PM86.0 °F78.8 °F79 %29.86 in6.2 miNW (310°)11.5 mphScattered Clouds
2:30 PM84.2 °F78.8 °F84 %29.86 in5.6 miNNW (330°)13.8 mphMostly Cloudy
2:48 PM78.8 °F78.8 °F100 %29.86 in3.1 miNW (320°)17.3 mphRainLight Rain
3:00 PM78.8 °F78.8 °F100 %29.89 in3.1 miNW (320°)12.7 mphRainLight Rain
3:12 PM77.0 °F77.0 °F100 %1.9 miWNW (290°)15.0 mphRainRain
3:30 PM77.0 °F77.0 °F100 %3.1 miNW (320°)8.1 mphRainLight Rain
4:00 PM78.8 °F78.8 °F100 %29.86 in3.7 miNNW (330°)9.2 mphRainLight Rain
4:30 PM78.8 °F78.8 °F100 %29.86 in3.7 miNNW (340°)8.1 mphRainLight Rain
5:00 PM80.0 °F80.0 °F99 %29.87 in4.0 miNNW (340°)4.6 mphRainLight Rain
5:00 PM80.6 °F80.6 °F100 %29.86 in4.3 miNorth (350°)5.8 mphRainLight Rain
5:30 PM80.6 °F80.6 °F100 %29.86 in4.3 miNNW (330°)4.6 mphRainLight Rain
6:00 PM80.6 °F80.6 °F100 %29.89 in5.0 miENE (70°)3.5 mphScattered Clouds
6:30 PM78.8 °F78.8 °F100 %29.89 in5.0 miEast (100°)4.6 mphMostly Cloudy
7:00 PM78.8 °F78.8 °F100 %29.89 in4.3 miESE (110°)5.8 mphMostly Cloudy
7:30 PM78.8 °F78.8 °F100 %29.89 in4.3 miESE (110°)5.8 mphScattered Clouds
8:00 PM79.0 °F79.0 °F100 %29.91 in4.0 miEast (90°)3.5 mphRainLight Rain
8:00 PM78.8 °F78.8 °F100 %29.92 in3.7 miENE (70°)5.8 mphRainLight Rain
8:30 PM78.8 °F78.8 °F100 %29.92 in3.7 miVariable2.3 mphScattered Clouds
9:00 PM78.8 °F78.8 °F100 %29.92 in3.7 miENE (70°)4.6 mphScattered Clouds
9:30 PM78.8 °F78.8 °F100 %29.92 in4.3 miEast (90°)3.5 mphScattered Clouds
10:00 PM78.8 °F78.8 °F100 %29.92 in4.3 miESE (110°)4.6 mphPartly Cloudy
10:30 PM78.8 °F78.8 °F100 %29.92 in4.3 miESE (110°)4.6 mphPartly Cloudy
11:00 PM78.0 °F78.0 °F100 %29.92 in4.0 miEast (90°)3.5 mphScattered Clouds
11:00 PM78.8 °F78.8 °F100 %29.92 in4.3 miEast (80°)4.6 mphPartly Cloudy
11:30 PM78.8 °F78.8 °F100 %29.92 in4.3 miEast (80°)3.5 mphPartly Cloudy
Hourly data recorded from WAAA, located miles away from Hasanudin, Indonesia







STORIES FROM OUR PARTNERS